Wind_Speed
39 41 41 42 43 43 44 45 46 47 47 46 47 47 48 49 50 50 50 50 48 48 48 47 46 46 46 46 47 47 47 48 47 46 47 47 47 46 46 46 46 46 46
39 40 41 42 43 43 44 45 46 47 48 48 48 48 48 49 49 50 50 50 50 50 49 49 49 47 46 46 47 47 48 49 48 47 48 48 47 47 47 47 47 47 47
39 39 41 42 43 43 44 45 46 46 47 48 49 49 50 50 50 50 50 50 50 51 51 51 51 50 49 48 49 49 49 49 49 48 48 48 48 47 48 47 47 47 47
39 40 41 42 43 44 44 44 45 46 47 48 48 49 50 50 50 50 50 50 51 51 52 52 51 51 51 52 52 51 50 50 50 49 49 49 49 48 48 48 48 48 48
38 40 40 41 42 43 44 45 45 46 46 46 47 48 49 50 50 49 50 51 51 51 52 52 52 52 52 53 53 52 52 52 52 51 51 51 50 50 49 49 48 48 48
37 39 39 40 41 42 43 44 45 46 46 46 47 47 48 48 49 49 49 50 51 51 51 51 52 52 52 51 51 51 52 52 52 51 51 50 50 50 49 49 49 49 49
37 38 39 40 41 42 43 44 44 45 45 46 46 47 47 48 49 48 49 49 48 49 49 50 50 51 51 50 50 50 50 51 51 51 51 50 50 50 49 49 49 49 48
37 38 40 41 42 42 42 43 43 44 45 45 46 46 46 46 47 47 47 46 46 47 48 49 49 50 50 49 49 49 49 50 51 51 51 51 51 50 50 49 49 49 48
37 38 39 40 41 42 42 42 42 43 44 44 44 44 44 44 44 45 45 45 45 46 47 47 48 48 48 49 49 48 48 49 49 50 50 49 50 50 50 49 49 48 48
36 36 37 38 39 40 41 42 42 43 43 43 43 43 43 43 43 43 43 44 45 45 46 46 46 46 46 47 48 48 48 47 47 48 48 48 48 48 48 48 48 47 47
34 35 36 36 37 38 39 40 41 41 41 42 42 42 42 43 42 42 43 43 44 44 44 44 44 45 45 46 46 46 46 46 46 46 46 47 46 46 46 46 47 47 47
34 35 35 35 36 36 37 38 38 38 39 40 41 40 41 41 41 41 42 43 43 42 42 43 43 43 44 45 45 46 45 45 44 44 44 44 45 45 45 45 45 45 45
34 34 35 35 36 36 37 37 37 37 38 39 39 39 39 39 40 41 41 42 42 42 41 41 41 42 42 43 44 44 44 43 43 43 42 42 43 43 42 42 42 43 43
35 35 36 36 36 37 37 37 38 38 38 38 38 38 39 39 39 40 40 41 42 42 41 41 41 41 40 40 41 41 41 41 41 41 41 41 41 41 41 41 41 41 41
35 35 35 36 36 36 36 36 37 37 38 37 37 38 38 39 40 41 41 41 41 41 41 40 40 40 39 38 38 39 39 39 39 39 39 39 39 39 39 39 39 39 39
34 35 35 35 36 36 36 36 37 37 37 37 38 38 38 39 39 40 40 40 40 40 40 39 39 38 38 37 37 37 37 37 37 37 36 37 37 37 37 37 37 37 36
34 34 34 35 35 35 36 36 37 37 37 38 38 37 37 38 38 38 38 38 38 38 38 38 38 37 37 37 37 36 35 35 35 35 36 36 36 36 35 35 35 35 34
33 33 34 34 34 34 35 36 36 36 36 36 36 36 37 37 37 37 37 37 37 37 37 37 36 36 36 36 35 35 34 34 34 34 35 35 35 35 35 35 35 34 34
32 33 33 33 33 33 34 34 35 35 35 35 35 35 36 36 37 37 37 36 36 35 35 35 35 35 35 35 35 35 35 35 34 34 34 34 33 33 33 33 33 34 33
32 31 32 31 31 32 32 33 33 33 34 34 35 35 35 35 35 35 35 34 34 34 34 34 34 34 34 34 34 34 34 34 34 34 34 33 32 31 31 31 31 32 32
30 31 31 30 30 31 31 31 31 32 33 33 33 33 33 33 33 33 33 33 33 33 33 33 33 33 32 32 32 32 32 32 31 31 31 30 30 30 30 30 30 30 30
30 30 30 30 30 31 31 30 30 30 31 31 31 31 32 32 32 31 31 31 32 32 31 31 31 30 29 29 29 29 29 29 28 28 28 28 28 28 28 27 27 27 27
29 29 29 30 30 30 30 30 29 29 29 29 29 29 29 29 29 29 29 29 29 28 28 28 27 27 28 28 27 27 26 26 26 26 26 26 26 26 26 26 25 25 25
29 29 29 29 29 29 28 28 27 26 26 26 27 27 27 26 26 26 26 27 26 25 25 25 25 25 26 26 25 25 25 25 25 24 24 24 24 24 23 23 23 23 23
29 29 28 28 28 28 27 27 26 26 27 27 27 26 25 25 24 24 24 24 23 23 23 24 24 24 24 24 24 24 24 24 24 24 23 23 23 23 23 23 23 23 23
29 28 28 28 27 27 26 26 27 27 27 27 25 24 24 24 23 23 22 21 21 21 22 22 22 22 22 22 22 22 22 22 21 21 21 21 22 22 22 22 22 22 22
Wind_Direction
258 258 258 259 261 262 263 263 263 264 265 266 267 268 268 268 268 268 269 269 269 271 272 272 272 272 273 273 273 274 273 274 273 272 272 272 273 273 273 273 274 273 273
262 261 260 261 262 262 263 264 265 266 267 267 268 268 269 269 268 268 268 268 269 270 271 272 272 272 273 274 274 274 275 275 273 272 271 272 273 273 273 274 274 273 272
262 262 262 262 263 264 265 266 266 267 267 268 269 270 271 271 270 269 269 268 269 269 270 271 272 272 272 272 274 274 274 274 273 272 272 272 272 273 274 275 274 273 272
263 263 264 264 264 264 266 267 267 268 269 270 270 271 272 272 271 271 270 269 269 269 270 270 271 272 272 273 273 273 273 273 272 272 272 272 272 273 274 274 273 272 272
264 264 266 266 265 266 267 267 268 269 270 271 272 272 273 272 272 271 270 270 270 270 270 270 271 272 272 272 273 273 272 272 272 272 272 272 272 273 273 273 272 272 272
266 266 266 267 267 267 268 268 268 269 270 271 272 273 273 273 273 273 272 271 271 271 270 271 271 272 272 272 272 272 272 272 272 272 273 273 272 273 272 272 272 271 272
270 269 269 268 268 269 269 269 269 269 270 271 272 273 273 273 273 273 273 272 272 271 271 271 271 272 272 272 272 272 271 272 272 272 273 273 273 272 272 272 272 271 271
273 273 272 270 269 268 269 269 270 270 271 272 273 274 274 274 273 273 273 273 273 273 273 273 273 272 272 271 272 272 272 272 272 272 273 273 272 271 271 272 272 272 271
276 276 275 273 271 270 270 270 271 272 272 273 274 274 274 273 273 274 274 273 273 274 275 276 275 274 273 272 272 272 273 273 273 272 272 273 272 272 272 272 272 272 272
277 277 277 276 274 272 271 271 272 273 273 273 273 273 274 273 274 274 275 275 275 275 276 276 275 274 274 274 274 274 273 273 273 273 273 273 273 273 272 272 272 272 272
279 279 280 279 277 275 274 273 273 274 274 274 274 274 274 274 274 274 275 277 277 277 276 276 276 275 275 275 275 275 275 274 274 274 274 273 274 274 273 273 273 273 274
281 281 281 280 280 279 277 276 275 275 275 276 275 275 275 275 275 275 276 277 278 278 277 277 276 276 275 275 274 274 274 274 274 274 273 273 273 273 273 273 274 274 275
283 283 283 282 281 280 278 276 275 275 276 276 276 276 275 276 276 276 276 277 278 279 278 277 277 277 276 275 274 274 273 273 273 273 272 272 273 273 273 274 274 275 276
285 284 284 283 282 280 278 276 276 276 277 277 277 276 275 276 276 277 278 279 278 278 278 278 277 277 277 277 275 274 273 273 273 272 272 273 273 273 273 274 275 276 277
286 286 285 285 284 282 279 277 277 277 278 278 278 277 276 276 277 277 278 278 278 278 278 278 277 276 276 276 275 275 275 275 274 273 273 273 273 273 274 275 276 276 277
288 288 287 286 285 283 280 279 278 278 279 279 278 278 278 279 279 278 278 278 278 278 277 277 277 276 276 275 275 275 274 275 274 273 273 272 273 273 274 275 276 277 278
291 290 289 288 287 284 282 280 279 279 280 280 280 280 280 280 280 279 279 278 278 278 277 277 277 277 276 275 275 275 274 274 274 274 274 273 273 273 274 275 276 277 277
294 293 292 291 289 287 285 283 281 280 280 280 281 281 281 281 280 279 279 278 278 277 277 277 277 276 276 275 275 274 274 274 274 274 274 274 273 273 273 274 276 277 277
296 295 295 293 291 289 288 287 286 284 282 281 281 282 282 281 281 280 279 278 278 277 278 278 277 276 276 275 274 274 275 275 274 274 274 274 274 274 274 274 274 275 277
299 298 297 295 294 293 292 291 290 287 284 283 282 282 282 282 281 280 279 278 278 277 278 278 276 275 275 275 275 275 275 275 274 274 274 274 274 274 273 274 275 276 276
301 302 301 299 297 296 296 295 293 290 287 285 284 282 282 282 281 281 280 279 279 278 278 277 276 275 276 275 275 275 275 275 274 273 273 273 273 273 273 275 276 277 277
304 304 303 300 299 298 298 297 296 294 290 288 286 285 284 283 283 282 281 281 280 279 278 278 277 276 274 274 274 275 275 274 273 273 273 272 272 273 274 275 276 277 277
306 305 303 302 300 300 300 299 297 296 294 291 289 287 286 286 284 283 282 281 280 279 278 278 277 275 274 274 275 275 274 274 273 272 272 272 272 273 274 275 275 275 275
307 306 305 303 301 301 302 302 300 298 296 294 291 289 289 290 289 286 283 281 279 278 278 278 276 275 275 274 274 274 273 273 272 272 272 272 273 273 273 273 274 275 275
309 309 308 306 304 303 302 302 301 299 298 297 293 290 289 290 290 288 286 281 278 277 277 277 277 277 276 275 274 273 272 272 272 272 272 272 273 273 273 274 275 276 276
309 308 309 310 308 306 304 302 302 300 299 297 294 291 289 289 289 288 285 282 279 277 276 276 276 276 276 275 274 273 273 271 270 271 272 273 274 274 273 274 276 276 276
Height
5643 5645 5646 5648 5649 5651 5652 5653 5654 5655 5656 5657 5657 5657 5657 5657 5657 5657 5656 5656 5656 5656 5655 5655 5654 5654 5653 5652 5651 5650 5650 5649 5649 5649 5648 5647 5645 5644 5644 5643 5643 5643 5642
5633 5634 5635 5637 5638 5639 5640 5641 5642 5643 5643 5644 5644 5644 5644 5644 5644 5643 5643 5642 5642 5642 5642 5642 5642 5641 5641 5640 5639 5638 5637 5636 5635 5636 5635 5634 5633 5631 5631 5630 5629 5629 5629
5622 5623 5624 5625 5627 5628 5628 5629 5630 5630 5631 5631 5631 5631 5631 5630 5630 5630 5629 5629 5629 5629 5629 5628 5628 5628 5627 5626 5625 5624 5623 5622 5621 5621 5621 5620 5619 5618 5617 5617 5616 5616 5616
5612 5613 5614 5614 5615 5616 5616 5617 5617 5618 5618 5618 5618 5617 5617 5617 5616 5616 5616 5615 5615 5615 5615 5614 5614 5613 5613 5612 5611 5610 5609 5608 5607 5607 5607 5606 5605 5604 5603 5603 5603 5602 5602
5601 5602 5602 5602 5603 5603 5604 5604 5604 5604 5604 5604 5604 5604 5603 5602 5602 5601 5601 5601 5601 5601 5600 5600 5599 5599 5597 5597 5596 5596 5595 5594 5593 5593 5592 5592 5591 5590 5589 5588 5588 5588 5587
5591 5591 5591 5591 5591 5591 5591 5591 5591 5591 5591 5591 5590 5590 5589 5589 5588 5587 5587 5587 5586 5586 5586 5585 5585 5584 5583 5582 5581 5581 5580 5579 5579 5578 5577 5577 5576 5575 5574 5573 5573 5573 5574
5580 5580 5579 5579 5579 5578 5578 5578 5578 5578 5578 5577 5577 5576 5575 5575 5574 5573 5572 5572 5572 5571 5571 5571 5570 5569 5568 5568 5567 5566 5565 5564 5564 5563 5563 5562 5561 5560 5559 5559 5558 5558 5559
5569 5568 5568 5567 5566 5566 5565 5565 5565 5565 5564 5564 5563 5562 5561 5561 5560 5559 5558 5558 5557 5557 5556 5556 5555 5555 5554 5553 5553 5552 5551 5550 5549 5549 5548 5548 5546 5545 5544 5544 5544 5544 5544
5559 5557 5556 5555 5554 5554 5553 5553 5552 5552 5551 5551 5550 5549 5548 5548 5546 5546 5545 5545 5544 5544 5543 5542 5541 5540 5540 5539 5539 5538 5537 5536 5534 5534 5533 5532 5531 5530 5530 5529 5529 5529 5530
5548 5546 5545 5543 5542 5542 5541 5541 5540 5539 5538 5538 5537 5536 5536 5535 5534 5533 5532 5532 5532 5531 5530 5528 5527 5526 5525 5524 5524 5524 5524 5523 5521 5520 5519 5518 5517 5516 5515 5515 5515 5515 5516
5537 5535 5534 5532 5531 5530 5529 5528 5527 5526 5526 5525 5525 5524 5524 5523 5522 5521 5520 5519 5518 5517 5516 5515 5514 5513 5512 5511 5510 5510 5509 5509 5508 5507 5506 5505 5504 5503 5502 5501 5501 5502 5502
5527 5525 5523 5521 5519 5518 5517 5516 5515 5514 5514 5513 5512 5512 5511 5510 5509 5508 5507 5506 5505 5505 5503 5502 5501 5500 5499 5497 5496 5496 5495 5495 5494 5494 5493 5493 5492 5491 5490 5489 5488 5488 5488
5517 5515 5513 5510 5509 5507 5506 5505 5504 5503 5502 5501 5500 5500 5499 5498 5497 5496 5495 5494 5492 5492 5491 5490 5488 5487 5486 5484 5483 5482 5482 5481 5481 5481 5481 5480 5479 5478 5478 5477 5477 5476 5476
5507 5505 5502 5500 5498 5496 5494 5493 5493 5492 5491 5489 5488 5488 5487 5486 5485 5484 5482 5481 5480 5479 5478 5477 5476 5474 5473 5472 5470 5469 5469 5469 5469 5469 5468 5468 5467 5467 5466 5466 5465 5465 5465
5497 5494 5492 5490 5487 5485 5483 5482 5481 5480 5479 5478 5477 5476 5475 5474 5473 5472 5470 5469 5468 5466 5465 5464 5463 5462 5461 5460 5459 5458 5457 5457 5456 5456 5456 5456 5456 5455 5455 5454 5454 5453 5453
5487 5484 5482 5479 5477 5474 5473 5471 5470 5469 5468 5466 5465 5464 5463 5462 5461 5459 5458 5456 5455 5454 5453 5452 5451 5450 5449 5448 5447 5447 5446 5445 5445 5444 5444 5444 5444 5444 5444 5444 5443 5442 5442
5476 5473 5471 5468 5466 5464 5462 5461 5459 5458 5456 5455 5454 5452 5451 5450 5449 5447 5445 5444 5443 5441 5440 5440 5439 5438 5438 5437 5436 5435 5435 5434 5434 5434 5434 5434 5434 5434 5433 5433 5432 5432 5431
5466 5463 5460 5458 5455 5453 5451 5449 5448 5447 5446 5443 5442 5440 5439 5438 5436 5435 5433 5432 5431 5430 5429 5428 5427 5427 5426 5425 5425 5424 5424 5424 5423 5423 5423 5423 5423 5423 5423 5422 5422 5421 5421
5456 5453 5450 5447 5445 5442 5440 5438 5436 5435 5434 5433 5431 5430 5428 5426 5425 5423 5422 5421 5420 5419 5418 5417 5416 5416 5415 5415 5414 5414 5413 5413 5413 5413 5413 5413 5412 5412 5412 5412 5412 5411 5411
5447 5444 5441 5438 5435 5432 5430 5428 5426 5424 5423 5421 5420 5419 5417 5415 5413 5412 5411 5410 5409 5408 5407 5406 5406 5405 5404 5404 5403 5403 5403 5403 5403 5403 5403 5402 5402 5402 5402 5402 5402 5401 5401
5439 5436 5432 5429 5426 5423 5421 5418 5416 5414 5412 5410 5409 5407 5406 5404 5403 5402 5401 5399 5398 5398 5397 5396 5395 5394 5394 5393 5393 5392 5392 5392 5392 5392 5393 5393 5393 5393 5393 5393 5392 5392 5392
5431 5427 5424 5421 5418 5415 5412 5409 5406 5404 5402 5400 5399 5397 5395 5394 5393 5392 5390 5389 5388 5387 5387 5386 5385 5384 5384 5383 5383 5383 5383 5383 5383 5383 5383 5383 5384 5384 5384 5384 5384 5383 5383
5423 5419 5416 5413 5410 5406 5403 5401 5398 5395 5393 5391 5389 5388 5386 5384 5383 5382 5381 5380 5379 5378 5377 5376 5376 5376 5375 5375 5374 5374 5374 5374 5374 5374 5375 5375 5375 5376 5376 5376 5375 5375 5375
5415 5411 5408 5405 5401 5398 5396 5393 5390 5387 5385 5383 5381 5379 5378 5376 5375 5373 5372 5371 5370 5369 5369 5369 5368 5368 5367 5367 5366 5366 5366 5366 5366 5366 5367 5367 5368 5368 5368 5368 5368 5367 5367
5408 5404 5401 5397 5394 5391 5388 5385 5382 5380 5378 5375 5373 5371 5370 5369 5367 5366 5364 5363 5362 5362 5362 5361 5361 5360 5360 5359 5359 5359 5358 5359 5359 5359 5359 5360 5361 5361 5361 5361 5360 5360 5360
5401 5398 5394 5390 5387 5384 5381 5378 5375 5372 5370 5368 5366 5364 5363 5361 5360 5358 5357 5356 5355 5355 5355 5354 5353 5353 5353 5352 5352 5352 5352 5352 5352 5352 5353 5353 5353 5354 5353 5353 5353 5353 5353